Regional Weather Roundup
Issued by NWS Little Rock, AR

Home | Current Version | Previous Version | Text Only | Print | Product List | Glossary On
Versions: 1 2 3 4 5 6 7 8 9 10 11 12 13 14 15 16 17 18 19 20 21 22 23 24 25 26 27 28 29 30 31 32 33 34 35 36 37 38 39 40 41 42 43 44 45 46 47 48 49 50
000
ASUS44 KLZK 191305
RWRLZK

WEATHER ROUNDUP FOR ARKANSAS
NATIONAL WEATHER SERVICE LITTLE ROCK AR
700 AM CST FRI DEC 19 2014

NOTE: "FAIR" INDICATES FEW OR NO CLOUDS BELOW 12,000 FEET WITH NO
SIGNIFICANT WEATHER AND/OR OBSTRUCTIONS TO VISIBILITY.

ARZ001-003-010-029-191400-
NORTHWEST ARKANSAS

CITY           SKY/WX    TMP DP  RH WIND       PRES   REMARKS
FAYETTEVILLE   CLOUDY    40  40 100 CALM      30.21R FOG
FORT SMITH     CLOUDY    41  38  89 NE8       30.23R
HARRISON       CLOUDY    37  36  96 E5        30.21R FOG
BENTONVILLE    CLOUDY    39  36  87 CALM      30.21R
ROGERS         CLOUDY    38  37  97 NE3       30.21R
SILOAM SPGS    CLOUDY    39  34  81 N3        30.22R VSB 1/2
HIGHFILL       FOG       39  39 100 N3        30.20R VSB 1
SPRINGDALE     FOG       39  39 100 E3        30.22R VSB 1/4
$$

ARZ004-005-016-191400-
NORTH CENTRAL ARKANSAS

CITY           SKY/WX    TMP DP  RH WIND       PRES   REMARKS
BATESVILLE     CLOUDY    37  34  87 NE3       30.26R
FLIPPIN        CLOUDY    37  34  87 E5        30.23S
MTN HOME       CLOUDY    37  36  96 SE6       30.22S FOG
$$

ARZ040-041-191400-
WEST CENTRAL ARKANSAS

CITY           SKY/WX    TMP DP  RH WIND       PRES   REMARKS
MENA           CLOUDY    41  41 100 E3        30.21R
MOUNT IDA      CLOUDY    40  38  93 CALM      30.20R
$$

ARZ009-017-025-026-028-191400-
NORTHEAST ARKANSAS

CITY           SKY/WX    TMP DP  RH WIND       PRES   REMARKS
CORNING        CLOUDY    36  32  87 NE9       30.30R
JONESBORO      CLOUDY    37  35  92 NE12      30.26S
NEWPORT        CLOUDY    38  37  96 N8        30.28R FOG
WALNUT RIDGE   CLOUDY    37  32  81 NE8       30.28R
BLYTHEVILLE    CLOUDY    38  34  85 NE7       30.27S
$$

ARZ022-023-033-042-044-191400-
CENTRAL ARKANSAS

CITY           SKY/WX    TMP DP  RH WIND       PRES   REMARKS
LITTLE ROCK    CLOUDY    42  37  82 NE5       30.25R
N LITTLE ROCK    N/A     39  39  99 NE8       30.25R
JACKSONVILLE   CLOUDY    39  38  93 NE5       30.24R
SEARCY         CLOUDY    40  37  89 NE6       30.26S
HOT SPRINGS    CLOUDY    40  39  97 NE3       30.23R
RUSSELLVILLE   CLOUDY    41  38  89 E3        30.23R
CLINTON        CLOUDY    39  37  93 NE3       30.26R FOG
$$

ARZ036-191400-
EAST ARKANSAS

CITY           SKY/WX    TMP DP  RH WIND       PRES   REMARKS
WEST MEMPHIS   CLOUDY    40  38  93 NE7       30.23S
$$

ARZ050-053-066-070-073-191400-
SOUTHWEST ARKANSAS

CITY           SKY/WX    TMP DP  RH WIND       PRES   REMARKS
ARKADELPHIA    CLOUDY    42  42 100 N6        30.24R FOG
CAMDEN         CLOUDY    43  39  87 MISG      30.21R FOG
TEXARKANA      CLOUDY    42  42 100 NE9       30.20R FOG
EL DORADO      CLOUDY    44  42  93 N8        30.19R
DE QUEEN       CLOUDY    44  42  93 E7        30.19S FOG
$$

ARZ056-057-069-191400-
SOUTHEAST ARKANSAS

CITY           SKY/WX    TMP DP  RH WIND       PRES   REMARKS
PINE BLUFF     CLOUDY    42  39  89 NE8       30.23R
STUTTGART      CLOUDY    41  37  87 NE6       30.24R
MONTICELLO     CLOUDY    42  39  89 NE8       30.19F

$$





USA.gov is the U.S. government's official web portal to all federal, state and local government web resources and services.